Time,TemperatureF,DewpointF,PressureIn,WindDirection,WindDirectionDegrees,WindSpeedMPH,WindSpeedGustMPH,Humidity,HourlyPrecipIn,Conditions,Clouds,dailyrainin,SoftwareType,DateUTC
2013-01-29 00:01:00,40.0,40.0,30.07,SSW,204,0.0,1.0,100,0.03,,,0.44,,2013-01-29 08:01:00,
2013-01-29 00:11:00,40.0,40.0,30.07,SSW,204,0.0,1.0,100,0.03,,,0.44,,2013-01-29 08:11:00,
2013-01-29 00:21:00,40.0,40.0,30.07,SSW,204,0.0,1.0,100,0.04,,,0.45,,2013-01-29 08:21:00,
2013-01-29 00:31:00,40.0,40.0,30.06,SSW,204,0.0,1.0,100,0.03,,,0.45,,2013-01-29 08:31:00,
2013-01-29 00:41:00,40.0,40.0,30.06,SSW,204,0.0,1.0,100,0.03,,,0.45,,2013-01-29 08:41:00,
2013-01-29 00:52:00,40.0,40.0,30.08,SW,220,1.0,4.0,100,0.03,,,0.46,,2013-01-29 08:52:00,
2013-01-29 01:01:00,40.0,40.0,30.08,ESE,123,0.0,1.0,100,0.02,,,0.46,,2013-01-29 09:01:00,
2013-01-29 01:11:00,40.0,40.0,30.08,ESE,123,0.0,1.0,100,0.02,,,0.46,,2013-01-29 09:11:00,
2013-01-29 01:21:00,40.0,40.0,30.08,SSE,157,0.0,1.0,100,0.02,,,0.47,,2013-01-29 09:21:00,
2013-01-29 01:31:00,40.0,40.0,30.09,SSE,157,0.0,1.0,100,0.02,,,0.47,,2013-01-29 09:31:00,
2013-01-29 01:42:00,40.0,40.0,30.09,SSE,157,0.0,1.0,100,0.02,,,0.47,,2013-01-29 09:42:00,
2013-01-29 01:52:00,40.0,40.0,30.08,South,175,0.0,2.0,100,0.02,,,0.48,,2013-01-29 09:52:00,
2013-01-29 02:01:00,40.0,40.0,30.08,SW,234,0.0,2.0,100,0.02,,,0.48,,2013-01-29 10:01:00,
2013-01-29 02:11:00,40.0,40.0,30.08,SW,234,0.0,2.0,100,0.02,,,0.48,,2013-01-29 10:11:00,
2013-01-29 02:21:00,40.0,40.0,30.09,South,186,2.0,5.0,100,0.02,,,0.49,,2013-01-29 10:21:00,
2013-01-29 02:32:00,40.0,40.0,30.10,SSW,213,0.0,3.0,100,0.02,,,0.48,,2013-01-29 10:32:00,
2013-01-29 02:41:00,40.0,40.0,30.10,SSW,213,0.0,3.0,100,0.02,,,0.48,,2013-01-29 10:41:00,
2013-01-29 02:52:00,40.0,40.0,30.10,WSW,247,0.0,1.0,100,0.01,,,0.48,,2013-01-29 10:52:00,
2013-01-29 03:01:00,40.0,40.0,30.11,South,181,0.0,1.0,100,0.01,,,0.48,,2013-01-29 11:01:00,
2013-01-29 03:11:00,40.0,40.0,30.11,South,181,0.0,1.0,100,0.01,,,0.48,,2013-01-29 11:11:00,
2013-01-29 03:21:00,40.0,40.0,30.11,South,180,0.0,0.0,100,0.01,,,0.49,,2013-01-29 11:21:00,
2013-01-29 03:31:00,40.0,40.0,30.11,SSE,165,0.0,3.0,100,0.02,,,0.50,,2013-01-29 11:31:00,
2013-01-29 03:41:00,40.0,40.0,30.11,SSE,165,0.0,3.0,100,0.02,,,0.50,,2013-01-29 11:41:00,
2013-01-29 03:52:00,40.0,40.0,30.11,SE,126,0.0,1.0,100,0.02,,,0.50,,2013-01-29 11:52:00,
2013-01-29 04:02:00,40.0,40.0,30.13,SE,126,0.0,1.0,100,0.02,,,0.50,,2013-01-29 12:02:00,
2013-01-29 04:12:00,40.0,40.0,30.13,SE,126,0.0,1.0,100,0.02,,,0.50,,2013-01-29 12:12:00,
2013-01-29 04:21:00,40.0,40.0,30.13,SE,126,0.0,0.0,100,0.02,,,0.51,,2013-01-29 12:21:00,
2013-01-29 04:32:00,40.0,40.0,30.13,SE,126,0.0,1.0,100,0.01,,,0.51,,2013-01-29 12:32:00,
2013-01-29 04:42:00,40.0,40.0,30.13,SE,126,0.0,1.0,100,0.01,,,0.51,,2013-01-29 12:42:00,
2013-01-29 04:52:00,40.0,40.0,30.13,SE,126,0.0,1.0,100,0.01,,,0.51,,2013-01-29 12:52:00,
2013-01-29 05:01:00,40.0,40.0,30.13,ESE,113,0.0,1.0,100,0.02,,,0.52,,2013-01-29 13:01:00,
2013-01-29 05:11:00,40.0,40.0,30.13,ESE,113,0.0,1.0,100,0.02,,,0.52,,2013-01-29 13:11:00,
2013-01-29 05:22:00,41.0,41.0,30.13,ENE,57,0.0,3.0,100,0.01,,,0.52,,2013-01-29 13:22:00,
2013-01-29 05:31:00,41.0,41.0,30.14,ENE,57,0.0,1.0,100,0.01,,,0.52,,2013-01-29 13:31:00,
2013-01-29 05:42:00,41.0,41.0,30.14,ENE,57,0.0,1.0,100,0.01,,,0.52,,2013-01-29 13:42:00,
2013-01-29 05:52:00,41.0,41.0,30.14,ENE,57,0.0,1.0,100,0.02,,,0.53,,2013-01-29 13:52:00,
2013-01-29 06:01:00,41.0,41.0,30.14,South,190,0.0,2.0,100,0.01,,,0.53,,2013-01-29 14:01:00,
2013-01-29 06:11:00,41.0,41.0,30.15,South,178,0.0,1.0,100,0.01,,,0.53,,2013-01-29 14:11:00,
2013-01-29 06:21:00,41.0,41.0,30.15,South,178,0.0,1.0,100,0.01,,,0.53,,2013-01-29 14:21:00,
2013-01-29 06:32:00,41.0,41.0,30.16,SSW,192,0.0,4.0,100,0.02,,,0.54,,2013-01-29 14:32:00,
2013-01-29 06:42:00,41.0,41.0,30.16,SSW,192,0.0,4.0,100,0.02,,,0.54,,2013-01-29 14:42:00,
2013-01-29 06:52:00,41.0,41.0,30.17,ENE,74,0.0,1.0,100,0.01,,,0.54,,2013-01-29 14:52:00,
2013-01-29 07:01:00,41.0,41.0,30.17,ENE,74,0.0,1.0,100,0.01,,,0.54,,2013-01-29 15:01:00,
2013-01-29 07:11:00,41.0,41.0,30.17,ENE,74,0.0,1.0,100,0.01,,,0.54,,2013-01-29 15:11:00,
2013-01-29 07:21:00,41.0,41.0,30.17,ENE,74,0.0,1.0,100,0.01,,,0.54,,2013-01-29 15:21:00,
2013-01-29 07:32:00,41.0,41.0,30.18,ENE,74,0.0,0.0,100,0.00,,,0.54,,2013-01-29 15:32:00,
2013-01-29 07:42:00,41.0,41.0,30.18,ENE,74,0.0,0.0,100,0.00,,,0.54,,2013-01-29 15:42:00,
2013-01-29 07:53:00,41.0,41.0,30.19,ENE,74,0.0,0.0,100,0.00,,,0.54,,2013-01-29 15:53:00,
2013-01-29 08:01:00,41.0,41.0,30.20,ENE,74,0.0,0.0,100,0.00,,,0.54,,2013-01-29 16:01:00,
2013-01-29 08:12:00,41.0,41.0,30.20,ENE,74,0.0,0.0,100,0.00,,,0.54,,2013-01-29 16:12:00,
2013-01-29 08:22:00,41.0,41.0,30.20,ENE,74,0.0,0.0,100,0.00,,,0.54,,2013-01-29 16:22:00,
2013-01-29 08:32:00,41.0,41.0,30.20,ENE,74,0.0,0.0,100,0.00,,,0.54,,2013-01-29 16:32:00,
2013-01-29 08:42:00,41.0,41.0,30.20,ENE,74,0.0,0.0,100,0.00,,,0.54,,2013-01-29 16:42:00,
2013-01-29 08:53:00,41.0,41.0,30.21,ENE,74,0.0,1.0,100,0.00,,,0.54,,2013-01-29 16:53:00,
2013-01-29 09:02:00,42.0,42.0,30.22,ENE,74,0.0,1.0,100,0.00,,,0.54,,2013-01-29 17:02:00,
2013-01-29 09:11:00,42.0,42.0,30.22,ENE,74,0.0,1.0,100,0.00,,,0.54,,2013-01-29 17:11:00,
2013-01-29 09:21:00,42.0,42.0,30.22,ENE,74,0.0,1.0,100,0.00,,,0.54,,2013-01-29 17:21:00,
2013-01-29 09:31:00,42.0,42.0,30.23,SSE,148,0.0,1.0,100,0.00,,,0.54,,2013-01-29 17:31:00,
2013-01-29 09:42:00,42.0,42.0,30.23,SSE,148,0.0,1.0,100,0.00,,,0.54,,2013-01-29 17:42:00,
2013-01-29 09:52:00,42.0,42.0,30.24,SSE,148,0.0,1.0,100,0.00,,,0.54,,2013-01-29 17:52:00,
2013-01-29 10:12:00,43.0,43.0,30.24,SSE,148,0.0,1.0,100,0.00,,,0.54,,2013-01-29 18:12:00,
2013-01-29 10:22:00,43.0,43.0,30.25,SSE,148,0.0,1.0,100,0.00,,,0.54,,2013-01-29 18:22:00,
2013-01-29 10:33:00,43.0,43.0,30.25,SSE,148,0.0,1.0,100,0.00,,,0.54,,2013-01-29 18:33:00,
2013-01-29 10:42:00,43.0,43.0,30.25,SSE,148,0.0,1.0,100,0.00,,,0.54,,2013-01-29 18:42:00,
2013-01-29 10:52:00,43.0,43.0,30.26,SSE,148,0.0,0.0,100,0.00,,,0.54,,2013-01-29 18:52:00,
2013-01-29 11:01:00,43.0,43.0,30.27,SSE,148,0.0,0.0,100,0.00,,,0.54,,2013-01-29 19:01:00,
2013-01-29 11:11:00,43.0,43.0,30.27,SSE,148,0.0,0.0,100,0.00,,,0.54,,2013-01-29 19:11:00,
2013-01-29 11:22:00,44.0,44.0,30.27,South,177,0.0,1.0,100,0.01,,,0.55,,2013-01-29 19:22:00,
2013-01-29 11:31:00,44.0,44.0,30.27,South,190,0.0,2.0,100,0.01,,,0.54,,2013-01-29 19:31:00,
2013-01-29 11:41:00,44.0,44.0,30.27,South,190,0.0,2.0,100,0.01,,,0.54,,2013-01-29 19:41:00,
2013-01-29 11:52:00,44.0,44.0,30.27,SW,236,0.0,1.0,100,0.02,,,0.55,,2013-01-29 19:52:00,
2013-01-29 12:01:00,44.0,44.0,30.27,SW,236,0.0,1.0,100,0.02,,,0.55,,2013-01-29 20:01:00,
2013-01-29 12:12:00,44.0,44.0,30.27,SW,236,0.0,1.0,100,0.02,,,0.55,,2013-01-29 20:12:00,
2013-01-29 12:21:00,44.0,44.0,30.28,South,173,0.0,1.0,100,0.02,,,0.56,,2013-01-29 20:21:00,
2013-01-29 12:32:00,45.0,45.0,30.28,West,274,0.0,0.0,100,0.03,,,0.56,,2013-01-29 20:32:00,
2013-01-29 12:42:00,45.0,45.0,30.28,West,274,0.0,0.0,100,0.03,,,0.56,,2013-01-29 20:42:00,
2013-01-29 12:53:00,45.0,45.0,30.28,West,280,0.0,1.0,100,0.02,,,0.56,,2013-01-29 20:53:00,
2013-01-29 13:01:00,45.0,45.0,30.28,West,280,0.0,1.0,100,0.02,,,0.56,,2013-01-29 21:01:00,
2013-01-29 13:11:00,45.0,45.0,30.28,West,280,0.0,1.0,100,0.02,,,0.56,,2013-01-29 21:11:00,
2013-01-29 13:21:00,45.0,45.0,30.28,ENE,69,0.0,1.0,100,0.02,,,0.57,,2013-01-29 21:21:00,
2013-01-29 13:32:00,45.0,45.0,30.28,SSW,204,0.0,5.0,100,0.02,,,0.55,,2013-01-29 21:32:00,
2013-01-29 13:41:00,45.0,45.0,30.28,SSW,204,0.0,5.0,100,0.02,,,0.55,,2013-01-29 21:41:00,
2013-01-29 13:52:00,45.0,45.0,30.29,SSW,203,0.0,1.0,100,0.02,,,0.55,,2013-01-29 21:52:00,
2013-01-29 14:01:00,45.0,45.0,30.29,SSW,203,0.0,1.0,100,0.02,,,0.55,,2013-01-29 22:01:00,
2013-01-29 14:11:00,45.0,45.0,30.29,SSW,203,0.0,1.0,100,0.02,,,0.55,,2013-01-29 22:11:00,
2013-01-29 14:21:00,45.0,45.0,30.29,West,265,0.0,1.0,100,0.01,,,0.55,,2013-01-29 22:21:00,
2013-01-29 14:32:00,45.0,45.0,30.29,WNW,295,0.0,1.0,100,0.00,,,0.52,,2013-01-29 22:32:00,
2013-01-29 14:42:00,45.0,45.0,30.29,WNW,295,0.0,1.0,100,0.00,,,0.52,,2013-01-29 22:42:00,
2013-01-29 14:53:00,45.0,45.0,30.29,SSW,207,0.0,1.0,100,0.02,,,0.54,,2013-01-29 22:53:00,
2013-01-29 15:01:00,45.0,45.0,30.29,SSW,207,0.0,1.0,100,0.02,,,0.54,,2013-01-29 23:01:00,
2013-01-29 15:11:00,45.0,45.0,30.29,SSW,207,0.0,1.0,100,0.02,,,0.54,,2013-01-29 23:11:00,
2013-01-29 15:22:00,45.0,45.0,30.29,SE,127,0.0,3.0,100,0.03,,,0.55,,2013-01-29 23:22:00,
2013-01-29 15:32:00,45.0,45.0,30.29,SSW,192,0.0,3.0,100,0.03,,,0.51,,2013-01-29 23:32:00,
2013-01-29 15:41:00,45.0,45.0,30.29,SSW,192,0.0,3.0,100,0.03,,,0.51,,2013-01-29 23:41:00,
2013-01-29 15:53:00,44.0,44.0,30.30,SSW,198,1.0,2.0,100,0.02,,,0.52,,2013-01-29 23:53:00,
2013-01-29 16:02:00,45.0,45.0,30.29,SSW,198,0.0,1.0,100,0.02,,,0.52,,2013-01-30 00:02:00,
2013-01-29 16:11:00,45.0,45.0,30.29,SSW,198,0.0,1.0,100,0.02,,,0.52,,2013-01-30 00:11:00,
2013-01-29 16:21:00,45.0,45.0,30.29,SSE,153,0.0,2.0,100,0.01,,,0.52,,2013-01-30 00:21:00,
2013-01-29 16:32:00,44.0,44.0,30.31,ESE,102,0.0,3.0,100,0.01,,,0.46,,2013-01-30 00:32:00,
2013-01-29 16:42:00,44.0,44.0,30.31,ESE,102,0.0,3.0,100,0.01,,,0.46,,2013-01-30 00:42:00,
2013-01-29 16:52:00,44.0,44.0,30.31,South,186,0.0,4.0,100,0.01,,,0.47,,2013-01-30 00:52:00,
2013-01-29 17:01:00,44.0,44.0,30.30,SW,214,1.0,6.0,100,0.02,,,0.48,,2013-01-30 01:01:00,
2013-01-29 17:11:00,44.0,44.0,30.30,SW,214,1.0,6.0,100,0.02,,,0.48,,2013-01-30 01:11:00,
2013-01-29 17:22:00,44.0,44.0,30.31,SSE,161,0.0,8.0,100,0.02,,,0.48,,2013-01-30 01:22:00,
2013-01-29 17:31:00,44.0,44.0,30.31,SSW,205,0.0,3.0,100,0.02,,,0.43,,2013-01-30 01:31:00,
2013-01-29 17:42:00,44.0,44.0,30.31,SSW,205,0.0,3.0,100,0.02,,,0.43,,2013-01-30 01:42:00,
2013-01-29 17:52:00,44.0,44.0,30.31,SSW,195,2.0,6.0,100,0.01,,,0.43,,2013-01-30 01:52:00,
2013-01-29 18:01:00,44.0,44.0,30.30,South,184,1.0,4.0,100,0.00,,,0.43,,2013-01-30 02:01:00,
2013-01-29 18:11:00,44.0,44.0,30.30,South,184,1.0,4.0,100,0.00,,,0.43,,2013-01-30 02:11:00,
2013-01-29 18:21:00,44.0,44.0,30.30,South,190,2.0,6.0,100,0.00,,,0.43,,2013-01-30 02:21:00,
2013-01-29 18:32:00,44.0,44.0,30.30,ESE,113,1.0,3.0,100,0.00,,,0.39,,2013-01-30 02:32:00,
2013-01-29 18:41:00,44.0,44.0,30.30,ESE,113,1.0,3.0,100,0.00,,,0.39,,2013-01-30 02:41:00,
2013-01-29 18:53:00,44.0,44.0,30.29,WSW,244,0.0,5.0,100,0.00,,,0.39,,2013-01-30 02:53:00,
2013-01-29 19:02:00,44.0,44.0,30.30,West,281,0.0,4.0,100,0.00,,,0.39,,2013-01-30 03:02:00,
2013-01-29 19:11:00,44.0,44.0,30.30,West,281,0.0,4.0,100,0.00,,,0.39,,2013-01-30 03:11:00,
2013-01-29 19:21:00,44.0,44.0,30.30,SSW,193,3.0,9.0,100,0.00,,,0.39,,2013-01-30 03:21:00,
2013-01-29 19:31:00,44.0,44.0,30.32,West,273,0.0,2.0,100,0.00,,,0.34,,2013-01-30 03:31:00,
2013-01-29 19:41:00,44.0,44.0,30.32,West,273,0.0,2.0,100,0.00,,,0.34,,2013-01-30 03:41:00,
2013-01-29 19:52:00,44.0,44.0,30.32,SSW,195,0.0,5.0,100,0.00,,,0.34,,2013-01-30 03:52:00,
2013-01-29 20:01:00,44.0,44.0,30.30,East,95,1.0,6.0,100,0.00,,,0.34,,2013-01-30 04:01:00,
2013-01-29 20:11:00,44.0,44.0,30.30,East,95,1.0,6.0,100,0.00,,,0.34,,2013-01-30 04:11:00,
2013-01-29 20:21:00,44.0,44.0,30.31,South,182,4.0,8.0,100,0.00,,,0.34,,2013-01-30 04:21:00,
2013-01-29 20:31:00,44.0,44.0,30.31,SSE,160,2.0,12.0,100,0.00,,,0.33,,2013-01-30 04:31:00,
2013-01-29 20:41:00,44.0,44.0,30.31,SSE,160,2.0,12.0,100,0.00,,,0.33,,2013-01-30 04:41:00,
2013-01-29 20:52:00,44.0,44.0,30.31,South,186,3.0,7.0,100,0.00,,,0.33,,2013-01-30 04:52:00,
2013-01-29 21:03:00,44.0,44.0,30.31,SSE,157,3.0,6.0,100,0.03,,,0.36,,2013-01-30 05:03:00,
2013-01-29 21:11:00,44.0,44.0,30.31,SSE,157,3.0,6.0,100,0.03,,,0.36,,2013-01-30 05:11:00,
2013-01-29 21:22:00,44.0,44.0,30.32,SSW,205,1.0,9.0,100,0.04,,,0.37,,2013-01-30 05:22:00,
2013-01-29 21:31:00,44.0,44.0,30.31,East,81,2.0,12.0,100,0.06,,,0.38,,2013-01-30 05:31:00,
2013-01-29 21:42:00,44.0,44.0,30.31,East,81,2.0,12.0,100,0.06,,,0.38,,2013-01-30 05:42:00,
2013-01-29 21:52:00,43.0,43.0,30.30,South,172,2.0,8.0,100,0.07,,,0.39,,2013-01-30 05:52:00,
2013-01-29 22:02:00,43.0,43.0,30.31,SSW,194,1.0,7.0,100,0.05,,,0.40,,2013-01-30 06:02:00,
2013-01-29 22:11:00,43.0,43.0,30.31,SSW,194,1.0,7.0,100,0.05,,,0.40,,2013-01-30 06:11:00,
2013-01-29 22:21:00,43.0,43.0,30.32,SSW,194,0.0,5.0,100,0.06,,,0.42,,2013-01-30 06:21:00,
2013-01-29 22:31:00,43.0,43.0,30.32,South,188,1.0,4.0,100,0.06,,,0.40,,2013-01-30 06:31:00,
2013-01-29 22:41:00,43.0,43.0,30.32,South,188,1.0,4.0,100,0.06,,,0.40,,2013-01-30 06:41:00,
2013-01-29 22:52:00,43.0,43.0,30.32,SW,229,0.0,6.0,100,0.08,,,0.43,,2013-01-30 06:52:00,
2013-01-29 23:01:00,43.0,43.0,30.31,SSW,207,1.0,4.0,100,0.09,,,0.45,,2013-01-30 07:01:00,
2013-01-29 23:11:00,43.0,43.0,30.31,SSW,207,1.0,4.0,100,0.09,,,0.45,,2013-01-30 07:11:00,
2013-01-29 23:21:00,43.0,43.0,30.31,SSW,207,1.0,4.0,100,0.08,,,0.46,,2013-01-30 07:21:00,
2013-01-29 23:31:00,43.0,43.0,30.32,SSE,157,1.0,4.0,100,0.08,,,0.46,,2013-01-30 07:31:00,
2013-01-29 23:41:00,43.0,43.0,30.32,SSE,157,1.0,4.0,100,0.08,,,0.46,,2013-01-30 07:41:00,
2013-01-29 23:52:00,43.0,43.0,30.31,SW,233,0.0,4.0,100,0.07,,,0.48,,2013-01-30 07:52:00,